Location: Gollag?dem
(17.0207°N, 80.7261°E)
Time: 12:13:55
(UTC+00:00)

Atlas Centaur 2 - Pass Details

Date: 03 August 2024
Orbit: 457 x 1271 km, 30.4° (Epoch: 11 September)

Event Time Altitude Azimuth Distance (km) Brightness Sun altitude
Exits shadow 22:08:52 56° 194° (SSW) 1,446 3.0 -28.9°
Drops below altitude 10° 22:16:26 10° 134° (SE) 3,251 5.4 -27.4°
Sets 22:19:25 0° 130° (SE) 4,199 6.1 -26.7°
